sat.trackr.live / text

‹ back to catalog

STARLINK-31970

NORAD 59928 · 2024-106G

PAYLOAD ACTIVE UNKNOWN

§ Identity

Operator
Country
US
Launch date
2024-06-01
Launch site
AFETR
Launch vehicle
Mass (kg)
RCS (m²)

Purposes: comms

External: N2YO · Heavens-Above · Gunter

§ Orbital elements

Epoch: 2026-05-23T18:18:04.485888Z

Period
94.27 min
Inclination
42.9999°
Eccentricity
0.0001498
Mean motion
15.27582476 rev/d
Perigee alt
482.0 km
Apogee alt
484.1 km
Semi-major
6,861.2 km
B*
1.1358e-4
RAAN
268.6025°
Arg perigee
272.9882°
Mean anomaly
87.0798°
Rev number
11,205

§ Raw data

STARLINK-319701 59928U 24106G   26143.76255192  .00002865  00000+0  11358-3 0  99902 59928  42.9999 268.6025 0001498 272.9882  87.0798 15.27582476112051

JSON: /api/v1/satellites/59928 · /tle

For live sub-satellite position, see the globe view (requires WebGL).

§ Visibility from observer

Set your observer location to see the next 7 days of passes ≥ 10°. The values pass through the URL so the page stays shareable.

No JS? Fill the form by hand. The geolocation button needs JavaScript.